Year,Month,Day,Hour,Minute,Value (Times are PST for temperature in C)
2011,08,24,00,00,14.70
2011,08,24,00,01,14.70
2011,08,24,00,02,14.70
2011,08,24,00,03,14.70
2011,08,24,00,04,14.70
2011,08,24,00,05,14.70
2011,08,24,00,06,14.70
2011,08,24,00,07,14.70
2011,08,24,00,08,14.70
2011,08,24,00,09,14.70
2011,08,24,00,10,14.60
2011,08,24,00,11,14.60
2011,08,24,00,12,14.60
2011,08,24,00,13,14.60
2011,08,24,00,14,14.60
2011,08,24,00,15,14.60
2011,08,24,00,16,14.60
2011,08,24,00,17,14.60
2011,08,24,00,18,14.60
2011,08,24,00,19,14.60
2011,08,24,00,20,14.60
2011,08,24,00,21,14.60
2011,08,24,00,22,14.60
2011,08,24,00,23,14.50
2011,08,24,00,24,14.50
2011,08,24,00,25,14.50
2011,08,24,00,26,14.50
2011,08,24,00,27,14.50
2011,08,24,00,28,14.50
2011,08,24,00,29,14.50
2011,08,24,00,30,14.50
2011,08,24,00,31,14.50
2011,08,24,00,32,14.40
2011,08,24,00,33,14.40
2011,08,24,00,34,14.40
2011,08,24,00,35,14.40
2011,08,24,00,36,14.40
2011,08,24,00,37,14.40
2011,08,24,00,38,14.40
2011,08,24,00,39,14.40
2011,08,24,00,40,14.30
2011,08,24,00,41,14.30
2011,08,24,00,42,14.30
2011,08,24,00,43,14.30
2011,08,24,00,44,14.30
2011,08,24,00,45,14.30
2011,08,24,00,46,14.20
2011,08,24,00,47,14.20
2011,08,24,00,48,14.20
2011,08,24,00,49,14.20
2011,08,24,00,50,14.20
2011,08,24,00,51,14.20
2011,08,24,00,52,14.20
2011,08,24,00,53,14.20
2011,08,24,00,54,14.20
2011,08,24,00,55,14.20
2011,08,24,00,56,14.20
2011,08,24,00,57,14.10
2011,08,24,00,58,14.10
2011,08,24,00,59,14.10
2011,08,24,01,00,14.10
2011,08,24,01,01,14.10
2011,08,24,01,02,14.00
2011,08,24,01,03,14.00
2011,08,24,01,04,14.00
2011,08,24,01,05,14.00
2011,08,24,01,06,14.00
2011,08,24,01,07,13.90
2011,08,24,01,08,13.90
2011,08,24,01,09,13.90
2011,08,24,01,10,13.90
2011,08,24,01,11,13.90
2011,08,24,01,12,13.90
2011,08,24,01,13,13.80
2011,08,24,01,14,13.80
2011,08,24,01,15,13.80
2011,08,24,01,16,13.70
2011,08,24,01,17,13.70
2011,08,24,01,18,13.70
2011,08,24,01,19,13.70
2011,08,24,01,20,13.70
2011,08,24,01,21,13.60
2011,08,24,01,22,13.60
2011,08,24,01,23,13.60
2011,08,24,01,24,13.60
2011,08,24,01,25,13.60
2011,08,24,01,26,13.60
2011,08,24,01,27,13.50
2011,08,24,01,28,13.50
2011,08,24,01,29,13.60
2011,08,24,01,30,13.60
2011,08,24,01,31,13.60
2011,08,24,01,32,13.60
2011,08,24,01,33,13.60
2011,08,24,01,34,13.60
2011,08,24,01,35,13.50
2011,08,24,01,36,13.50
2011,08,24,01,37,13.50
2011,08,24,01,38,13.50
2011,08,24,01,39,13.50
2011,08,24,01,40,13.50
2011,08,24,01,41,13.50
2011,08,24,01,42,13.40
2011,08,24,01,43,13.40
2011,08,24,01,44,13.40
2011,08,24,01,45,13.40
2011,08,24,01,46,13.40
2011,08,24,01,47,13.40
2011,08,24,01,48,13.40
2011,08,24,01,49,13.40
2011,08,24,01,50,13.30
2011,08,24,01,51,13.30
2011,08,24,01,52,13.30
2011,08,24,01,53,13.30
2011,08,24,01,54,13.30
2011,08,24,01,55,13.30
2011,08,24,01,56,13.30
2011,08,24,01,57,13.30
2011,08,24,01,58,13.30
2011,08,24,01,59,13.30
2011,08,24,02,00,13.30
2011,08,24,02,01,13.30
2011,08,24,02,02,13.30
2011,08,24,02,03,13.30
2011,08,24,02,04,13.30
2011,08,24,02,05,13.30
2011,08,24,02,06,13.30
2011,08,24,02,07,13.50
2011,08,24,02,08,13.50
2011,08,24,02,09,13.60
2011,08,24,02,10,13.70
2011,08,24,02,11,13.80
2011,08,24,02,12,13.90
2011,08,24,02,13,14.00
2011,08,24,02,14,14.10
2011,08,24,02,15,14.10
2011,08,24,02,16,14.10
2011,08,24,02,17,14.20
2011,08,24,02,18,14.20
2011,08,24,02,19,14.20
2011,08,24,02,20,14.20
2011,08,24,02,21,14.20
2011,08,24,02,22,14.30
2011,08,24,02,23,14.30
2011,08,24,02,24,14.40
2011,08,24,02,25,14.40
2011,08,24,02,26,14.50
2011,08,24,02,27,14.60
2011,08,24,02,28,14.60
2011,08,24,02,29,14.60
2011,08,24,02,30,14.60
2011,08,24,02,31,14.70
2011,08,24,02,32,14.70
2011,08,24,02,33,14.70
2011,08,24,02,34,14.80
2011,08,24,02,35,14.80
2011,08,24,02,36,14.80
2011,08,24,02,37,14.80
2011,08,24,02,38,14.80
2011,08,24,02,39,14.80
2011,08,24,02,40,14.80
2011,08,24,02,41,14.80
2011,08,24,02,42,14.80
2011,08,24,02,43,14.90
2011,08,24,02,44,14.90
2011,08,24,02,45,14.90
2011,08,24,02,46,15.00
2011,08,24,02,47,15.00
2011,08,24,02,48,15.00
2011,08,24,02,49,15.00
2011,08,24,02,50,15.10
2011,08,24,02,51,15.10
2011,08,24,02,52,15.10
2011,08,24,02,53,15.10
2011,08,24,02,54,15.10
2011,08,24,02,55,15.10
2011,08,24,02,56,15.10
2011,08,24,02,57,15.10
2011,08,24,02,58,15.10
2011,08,24,02,59,15.10
2011,08,24,03,00,15.10
2011,08,24,03,01,15.10
2011,08,24,03,02,15.10
2011,08,24,03,03,15.20
2011,08,24,03,04,15.20
2011,08,24,03,05,15.20
2011,08,24,03,06,15.20
2011,08,24,03,07,15.20
2011,08,24,03,08,15.20
2011,08,24,03,09,15.20
2011,08,24,03,10,15.20
2011,08,24,03,11,15.20
2011,08,24,03,12,15.20
2011,08,24,03,13,15.20
2011,08,24,03,14,15.20
2011,08,24,03,15,15.20
2011,08,24,03,16,15.20
2011,08,24,03,17,15.20
2011,08,24,03,18,15.20
2011,08,24,03,19,15.20
2011,08,24,03,20,15.20
2011,08,24,03,21,15.20
2011,08,24,03,22,15.20
2011,08,24,03,23,15.20
2011,08,24,03,24,15.20
2011,08,24,03,25,15.20
2011,08,24,03,26,15.20
2011,08,24,03,27,15.20
2011,08,24,03,28,15.20
2011,08,24,03,29,15.20
2011,08,24,03,30,15.20
2011,08,24,03,31,15.20
2011,08,24,03,32,15.20
2011,08,24,03,33,15.20
2011,08,24,03,34,15.10
2011,08,24,03,35,15.10
2011,08,24,03,36,15.10
2011,08,24,03,37,15.00
2011,08,24,03,38,15.00
2011,08,24,03,39,14.90
2011,08,24,03,40,14.80
2011,08,24,03,41,14.60
2011,08,24,03,42,14.50
2011,08,24,03,43,14.40
2011,08,24,03,44,14.30
2011,08,24,03,45,14.20
2011,08,24,03,46,14.10
2011,08,24,03,47,14.00
2011,08,24,03,48,14.00
2011,08,24,03,49,13.90
2011,08,24,03,50,13.90
2011,08,24,03,51,13.90
2011,08,24,03,52,13.80
2011,08,24,03,53,13.80
2011,08,24,03,54,13.70
2011,08,24,03,55,13.70
2011,08,24,03,56,13.70
2011,08,24,03,57,13.70
2011,08,24,03,58,13.70
2011,08,24,03,59,13.60
2011,08,24,04,00,13.60
2011,08,24,04,01,13.60
2011,08,24,04,02,13.60
2011,08,24,04,03,13.50
2011,08,24,04,04,13.50
2011,08,24,04,05,13.50
2011,08,24,04,06,13.50
2011,08,24,04,07,13.40
2011,08,24,04,08,13.40
2011,08,24,04,09,13.40
2011,08,24,04,10,13.40
2011,08,24,04,11,13.30
2011,08,24,04,12,13.30
2011,08,24,04,13,13.30
2011,08,24,04,14,13.30
2011,08,24,04,15,13.30
2011,08,24,04,16,13.30
2011,08,24,04,17,13.30
2011,08,24,04,18,13.30
2011,08,24,04,19,13.20
2011,08,24,04,20,13.20
2011,08,24,04,21,13.20
2011,08,24,04,22,13.20
2011,08,24,04,23,13.20
2011,08,24,04,24,13.20
2011,08,24,04,25,13.20
2011,08,24,04,26,13.20
2011,08,24,04,27,13.10
2011,08,24,04,28,13.10
2011,08,24,04,29,13.10
2011,08,24,04,30,13.10
2011,08,24,04,31,13.10
2011,08,24,04,32,13.10
2011,08,24,04,33,13.10
2011,08,24,04,34,13.10
2011,08,24,04,35,13.10
2011,08,24,04,36,13.10
2011,08,24,04,37,13.00
2011,08,24,04,38,13.00
2011,08,24,04,39,13.00
2011,08,24,04,40,12.90
2011,08,24,04,41,12.90
2011,08,24,04,42,12.90
2011,08,24,04,43,12.90
2011,08,24,04,44,12.80
2011,08,24,04,45,12.80
2011,08,24,04,46,12.80
2011,08,24,04,47,12.80
2011,08,24,04,48,12.80
2011,08,24,04,49,12.80
2011,08,24,04,50,12.80
2011,08,24,04,51,12.80
2011,08,24,04,52,12.80
2011,08,24,04,53,12.80
2011,08,24,04,54,12.80
2011,08,24,04,55,12.80
2011,08,24,04,56,12.80
2011,08,24,04,57,12.80
2011,08,24,04,58,12.80
2011,08,24,04,59,12.80
2011,08,24,05,00,12.80
2011,08,24,05,01,12.80
2011,08,24,05,02,12.80
2011,08,24,05,03,12.80
2011,08,24,05,04,12.80
2011,08,24,05,05,12.80
2011,08,24,05,06,12.90
2011,08,24,05,07,12.90
2011,08,24,05,08,12.90
2011,08,24,05,09,12.90
2011,08,24,05,10,12.90
2011,08,24,05,11,12.90
2011,08,24,05,12,12.90
2011,08,24,05,13,12.90
2011,08,24,05,14,12.90
2011,08,24,05,15,13.00
2011,08,24,05,16,13.00
2011,08,24,05,17,13.10
2011,08,24,05,18,13.10
2011,08,24,05,19,13.10
2011,08,24,05,20,13.20
2011,08,24,05,21,13.20
2011,08,24,05,22,13.30
2011,08,24,05,23,13.30
2011,08,24,05,24,13.30
2011,08,24,05,25,13.30
2011,08,24,05,26,13.30
2011,08,24,05,27,13.30
2011,08,24,05,28,13.30
2011,08,24,05,29,13.30
2011,08,24,05,30,13.30
2011,08,24,05,31,13.30
2011,08,24,05,32,13.40
2011,08,24,05,33,13.40
2011,08,24,05,34,13.40
2011,08,24,05,35,13.40
2011,08,24,05,36,13.40
2011,08,24,05,37,13.40
2011,08,24,05,38,13.40
2011,08,24,05,39,13.50
2011,08,24,05,40,13.50
2011,08,24,05,41,13.50
2011,08,24,05,42,13.50
2011,08,24,05,43,13.40
2011,08,24,05,44,13.40
2011,08,24,05,45,13.40
2011,08,24,05,46,13.40
2011,08,24,05,47,13.40
2011,08,24,05,48,13.40
2011,08,24,05,49,13.40
2011,08,24,05,50,13.40
2011,08,24,05,51,13.40
2011,08,24,05,52,13.30
2011,08,24,05,53,13.30
2011,08,24,05,54,13.30
2011,08,24,05,55,13.30
2011,08,24,05,56,13.30
2011,08,24,05,57,13.30
2011,08,24,05,58,13.30
2011,08,24,05,59,13.30
2011,08,24,06,00,13.30
2011,08,24,06,01,13.30
2011,08,24,06,02,13.30
2011,08,24,06,03,13.20
2011,08,24,06,04,13.20
2011,08,24,06,05,13.20
2011,08,24,06,06,13.30
2011,08,24,06,07,13.30
2011,08,24,06,08,13.30
2011,08,24,06,09,13.30
2011,08,24,06,10,13.30
2011,08,24,06,11,13.30
2011,08,24,06,12,13.30
2011,08,24,06,13,13.30
2011,08,24,06,14,13.30
2011,08,24,06,15,13.30
2011,08,24,06,16,13.30
2011,08,24,06,17,13.30
2011,08,24,06,18,13.30
2011,08,24,06,19,13.30
2011,08,24,06,20,13.30
2011,08,24,06,21,13.30
2011,08,24,06,22,13.30
2011,08,24,06,23,13.40
2011,08,24,06,24,13.40
2011,08,24,06,25,13.40
2011,08,24,06,26,13.40
2011,08,24,06,27,13.50
2011,08,24,06,28,13.50
2011,08,24,06,29,13.50
2011,08,24,06,30,13.50
2011,08,24,06,31,13.50
2011,08,24,06,32,13.60
2011,08,24,06,33,13.60
2011,08,24,06,34,13.60
2011,08,24,06,35,13.60
2011,08,24,06,36,13.60
2011,08,24,06,37,13.60
2011,08,24,06,38,13.70
2011,08,24,06,39,13.70
2011,08,24,06,40,13.70
2011,08,24,06,41,13.70
2011,08,24,06,42,13.70
2011,08,24,06,43,13.70
2011,08,24,06,44,13.70
2011,08,24,06,45,13.70
2011,08,24,06,46,13.70
2011,08,24,06,47,13.70
2011,08,24,06,48,13.70
2011,08,24,06,49,13.70
2011,08,24,06,50,13.70
2011,08,24,06,51,13.70
2011,08,24,06,52,13.70
2011,08,24,06,53,13.70
2011,08,24,06,54,13.70
2011,08,24,06,55,13.70
2011,08,24,06,56,13.70
2011,08,24,06,57,13.70
2011,08,24,06,58,13.70
2011,08,24,06,59,13.70
2011,08,24,07,00,13.70
2011,08,24,07,01,13.70
2011,08,24,07,02,13.70
2011,08,24,07,03,13.70
2011,08,24,07,04,13.70
2011,08,24,07,05,13.70
2011,08,24,07,06,13.70
2011,08,24,07,07,13.70
2011,08,24,07,08,13.70
2011,08,24,07,09,13.70
2011,08,24,07,10,13.70
2011,08,24,07,11,13.70
2011,08,24,07,12,13.80
2011,08,24,07,13,13.80
2011,08,24,07,14,13.80
2011,08,24,07,15,13.80
2011,08,24,07,16,13.80
2011,08,24,07,17,13.80
2011,08,24,07,18,13.90
2011,08,24,07,19,13.90
2011,08,24,07,20,13.90
2011,08,24,07,21,13.90
2011,08,24,07,22,14.00
2011,08,24,07,23,14.00
2011,08,24,07,24,14.00
2011,08,24,07,25,14.00
2011,08,24,07,26,14.10
2011,08,24,07,27,14.10
2011,08,24,07,28,14.10
2011,08,24,07,29,14.10
2011,08,24,07,30,14.20
2011,08,24,07,31,14.20
2011,08,24,07,32,14.20
2011,08,24,07,33,14.20
2011,08,24,07,34,14.20
2011,08,24,07,35,14.20
2011,08,24,07,36,14.30
2011,08,24,07,37,14.30
2011,08,24,07,38,14.30
2011,08,24,07,39,14.40
2011,08,24,07,40,14.40
2011,08,24,07,41,14.40
2011,08,24,07,42,14.50
2011,08,24,07,43,14.50
2011,08,24,07,44,14.50
2011,08,24,07,45,14.60
2011,08,24,07,46,14.60
2011,08,24,07,47,14.60
2011,08,24,07,48,14.60
2011,08,24,07,49,14.70
2011,08,24,07,50,14.70
2011,08,24,07,51,14.80
2011,08,24,07,52,14.80
2011,08,24,07,53,14.80
2011,08,24,07,54,14.80
2011,08,24,07,55,14.80
2011,08,24,07,56,14.90
2011,08,24,07,57,14.90
2011,08,24,07,58,14.90
2011,08,24,07,59,15.00
2011,08,24,08,00,15.00
2011,08,24,08,01,15.00
2011,08,24,08,02,15.00
2011,08,24,08,03,15.00
2011,08,24,08,04,15.00
2011,08,24,08,05,15.10
2011,08,24,08,06,15.10
2011,08,24,08,07,15.10
2011,08,24,08,08,15.20
2011,08,24,08,09,15.20
2011,08,24,08,10,15.20
2011,08,24,08,11,15.20
2011,08,24,08,12,15.30
2011,08,24,08,13,15.30
2011,08,24,08,14,15.30
2011,08,24,08,15,15.30
2011,08,24,08,16,15.30
2011,08,24,08,17,15.30
2011,08,24,08,18,15.30
2011,08,24,08,19,15.40
2011,08,24,08,20,15.40
2011,08,24,08,21,15.40
2011,08,24,08,22,15.50
2011,08,24,08,23,15.50
2011,08,24,08,24,15.50
2011,08,24,08,25,15.60
2011,08,24,08,26,15.60
2011,08,24,08,27,15.70
2011,08,24,08,28,15.70
2011,08,24,08,29,15.80
2011,08,24,08,30,15.80
2011,08,24,08,31,15.80
2011,08,24,08,32,15.80
2011,08,24,08,33,15.90
2011,08,24,08,34,15.90
2011,08,24,08,35,16.00
2011,08,24,08,36,16.10
2011,08,24,08,37,16.10
2011,08,24,08,38,16.20
2011,08,24,08,39,16.30
2011,08,24,08,40,16.40
2011,08,24,08,41,16.40
2011,08,24,08,42,16.50
2011,08,24,08,43,16.60
2011,08,24,08,44,16.60
2011,08,24,08,45,16.60
2011,08,24,08,46,16.50
2011,08,24,08,47,16.40
2011,08,24,08,48,16.40
2011,08,24,08,49,16.40
2011,08,24,08,50,16.40
2011,08,24,08,51,16.40
2011,08,24,08,52,16.40
2011,08,24,08,53,16.40
2011,08,24,08,54,16.40
2011,08,24,08,55,16.40
2011,08,24,08,56,16.40
2011,08,24,08,57,16.40
2011,08,24,08,58,16.40
2011,08,24,08,59,16.40
2011,08,24,09,00,16.40
2011,08,24,09,01,16.50
2011,08,24,09,02,16.60
2011,08,24,09,03,16.60
2011,08,24,09,04,16.70
2011,08,24,09,05,16.70
2011,08,24,09,06,16.70
2011,08,24,09,07,16.80
2011,08,24,09,08,16.90
2011,08,24,09,09,16.90
2011,08,24,09,10,17.00
2011,08,24,09,11,17.00
2011,08,24,09,12,17.10
2011,08,24,09,13,17.10
2011,08,24,09,14,17.10
2011,08,24,09,15,17.20
2011,08,24,09,16,17.30
2011,08,24,09,17,17.30
2011,08,24,09,18,17.30
2011,08,24,09,19,17.30
2011,08,24,09,20,17.40
2011,08,24,09,21,17.50
2011,08,24,09,22,17.50
2011,08,24,09,23,17.60
2011,08,24,09,24,17.70
2011,08,24,09,25,17.80
2011,08,24,09,26,17.90
2011,08,24,09,27,18.10
2011,08,24,09,28,18.20
2011,08,24,09,29,18.20
2011,08,24,09,30,18.40
2011,08,24,09,31,18.50
2011,08,24,09,32,18.60
2011,08,24,09,33,18.60
2011,08,24,09,34,18.70
2011,08,24,09,35,18.80
2011,08,24,09,36,18.90
2011,08,24,09,37,18.90
2011,08,24,09,38,18.90
2011,08,24,09,39,18.90
2011,08,24,09,40,18.90
2011,08,24,09,41,18.80
2011,08,24,09,42,18.70
2011,08,24,09,43,18.60
2011,08,24,09,44,18.50
2011,08,24,09,45,18.50
2011,08,24,09,46,18.40
2011,08,24,09,47,18.40
2011,08,24,09,48,18.40
2011,08,24,09,49,18.40
2011,08,24,09,50,18.40
2011,08,24,09,51,18.40
2011,08,24,09,52,18.40
2011,08,24,09,53,18.40
2011,08,24,09,54,18.40
2011,08,24,09,55,18.40
2011,08,24,09,56,18.40
2011,08,24,09,57,18.40
2011,08,24,09,58,18.40
2011,08,24,09,59,18.40
2011,08,24,10,00,18.40
2011,08,24,10,01,18.40
2011,08,24,10,02,18.40
2011,08,24,10,03,18.40
2011,08,24,10,04,18.30
2011,08,24,10,05,18.20
2011,08,24,10,06,18.00
2011,08,24,10,07,17.80
2011,08,24,10,08,17.80
2011,08,24,10,09,17.70
2011,08,24,10,10,17.70
2011,08,24,10,11,17.70
2011,08,24,10,12,17.50
2011,08,24,10,13,17.40
2011,08,24,10,14,17.30
2011,08,24,10,15,17.10
2011,08,24,10,16,17.00
2011,08,24,10,17,16.90
2011,08,24,10,18,16.90
2011,08,24,10,19,16.80
2011,08,24,10,20,16.70
2011,08,24,10,21,16.60
2011,08,24,10,22,16.50
2011,08,24,10,23,16.40
2011,08,24,10,24,16.40
2011,08,24,10,25,16.40
2011,08,24,10,26,16.40
2011,08,24,10,27,16.50
2011,08,24,10,28,16.60
2011,08,24,10,29,16.60
2011,08,24,10,30,16.70
2011,08,24,10,31,16.70
2011,08,24,10,32,16.70
2011,08,24,10,33,16.90
2011,08,24,10,34,17.00
2011,08,24,10,35,17.00
2011,08,24,10,36,17.10
2011,08,24,10,37,17.20
2011,08,24,10,38,17.20
2011,08,24,10,39,17.20
2011,08,24,10,40,17.20
2011,08,24,10,41,17.30
2011,08,24,10,42,17.30
2011,08,24,10,43,17.30
2011,08,24,10,44,17.30
2011,08,24,10,45,17.30
2011,08,24,10,46,17.30
2011,08,24,10,47,17.30
2011,08,24,10,48,17.30
2011,08,24,10,49,17.30
2011,08,24,10,50,17.50
2011,08,24,10,51,17.60
2011,08,24,10,52,17.70
2011,08,24,10,53,17.80
2011,08,24,10,54,17.80
2011,08,24,10,55,17.70
2011,08,24,10,56,17.70
2011,08,24,10,57,17.70
2011,08,24,10,58,17.70
2011,08,24,10,59,17.80
2011,08,24,11,00,17.90
2011,08,24,11,01,18.10
2011,08,24,11,02,18.30
2011,08,24,11,03,18.40
2011,08,24,11,04,18.40
2011,08,24,11,05,18.40
2011,08,24,11,06,18.40
2011,08,24,11,07,18.20
2011,08,24,11,08,18.20
2011,08,24,11,09,18.20
2011,08,24,11,10,18.10
2011,08,24,11,11,18.00
2011,08,24,11,12,17.90
2011,08,24,11,13,17.80
2011,08,24,11,14,17.80
2011,08,24,11,15,17.80
2011,08,24,11,16,17.80
2011,08,24,11,17,17.90
2011,08,24,11,18,17.80
2011,08,24,11,19,17.80
2011,08,24,11,20,17.80
2011,08,24,11,21,17.80
2011,08,24,11,22,17.90
2011,08,24,11,23,17.90
2011,08,24,11,24,17.90
2011,08,24,11,25,17.90
2011,08,24,11,26,17.90
2011,08,24,11,27,17.90
2011,08,24,11,28,17.90
2011,08,24,11,29,17.90
2011,08,24,11,30,18.00
2011,08,24,11,31,18.10
2011,08,24,11,32,18.20
2011,08,24,11,33,18.20
2011,08,24,11,34,18.20
2011,08,24,11,35,18.20
2011,08,24,11,36,18.20
2011,08,24,11,37,18.30
2011,08,24,11,38,18.40
2011,08,24,11,39,18.40
2011,08,24,11,40,18.50
2011,08,24,11,41,18.60
2011,08,24,11,42,18.60
2011,08,24,11,43,18.80
2011,08,24,11,44,18.80
2011,08,24,11,45,18.80
2011,08,24,11,46,18.90
2011,08,24,11,47,19.00
2011,08,24,11,48,19.10
2011,08,24,11,49,19.10
2011,08,24,11,50,19.10
2011,08,24,11,51,19.20
2011,08,24,11,52,19.40
2011,08,24,11,53,19.50
2011,08,24,11,54,19.50
2011,08,24,11,55,19.50
2011,08,24,11,56,19.50
2011,08,24,11,57,19.40
2011,08,24,11,58,19.30
2011,08,24,11,59,19.30
2011,08,24,12,00,19.30
2011,08,24,12,01,19.30
2011,08,24,12,02,19.40
2011,08,24,12,03,19.40
2011,08,24,12,04,19.40
2011,08,24,12,05,19.30
2011,08,24,12,06,19.20
2011,08,24,12,07,19.20
2011,08,24,12,08,19.20
2011,08,24,12,09,19.10
2011,08,24,12,10,19.10
2011,08,24,12,11,19.10
2011,08,24,12,12,19.10
2011,08,24,12,13,19.10
2011,08,24,12,14,19.10
2011,08,24,12,15,19.10
2011,08,24,12,16,19.10
2011,08,24,12,17,19.10
2011,08,24,12,18,19.20
2011,08,24,12,19,19.40
2011,08,24,12,20,19.50
2011,08,24,12,21,19.70
2011,08,24,12,22,19.90
2011,08,24,12,23,20.00
2011,08,24,12,24,20.20
2011,08,24,12,25,20.20
2011,08,24,12,26,20.30
2011,08,24,12,27,20.40
2011,08,24,12,28,20.50
2011,08,24,12,29,20.60
2011,08,24,12,30,20.60
2011,08,24,12,31,20.70
2011,08,24,12,32,20.80
2011,08,24,12,33,20.80
2011,08,24,12,34,20.70
2011,08,24,12,35,20.50
2011,08,24,12,36,20.30
2011,08,24,12,37,20.20
2011,08,24,12,38,20.20
2011,08,24,12,39,20.20
2011,08,24,12,40,20.20
2011,08,24,12,41,20.20
2011,08,24,12,42,20.20
2011,08,24,12,43,20.20
2011,08,24,12,44,20.20
2011,08,24,12,45,20.20
2011,08,24,12,46,20.20
2011,08,24,12,47,20.20
2011,08,24,12,48,20.10
2011,08,24,12,49,20.10
2011,08,24,12,50,20.00
2011,08,24,12,51,19.90
2011,08,24,12,52,19.90
2011,08,24,12,53,19.90
2011,08,24,12,54,20.00
2011,08,24,12,55,20.10
2011,08,24,12,56,20.20
2011,08,24,12,57,20.10
2011,08,24,12,58,20.00
2011,08,24,12,59,19.90
2011,08,24,13,00,19.90
2011,08,24,13,01,19.90
2011,08,24,13,02,20.00
2011,08,24,13,03,20.10
2011,08,24,13,04,20.20
2011,08,24,13,05,20.10
2011,08,24,13,06,20.00
2011,08,24,13,07,20.00
2011,08,24,13,08,20.10
2011,08,24,13,09,20.00
2011,08,24,13,10,19.90
2011,08,24,13,11,19.90
2011,08,24,13,12,19.90
2011,08,24,13,13,19.90
2011,08,24,13,14,19.90
2011,08,24,13,15,20.10
2011,08,24,13,16,20.20
2011,08,24,13,17,20.20
2011,08,24,13,18,20.20
2011,08,24,13,19,20.20
2011,08,24,13,20,20.20
2011,08,24,13,21,20.20
2011,08,24,13,22,20.20
2011,08,24,13,23,20.20
2011,08,24,13,24,20.20
2011,08,24,13,25,20.20
2011,08,24,13,26,20.20
2011,08,24,13,27,20.10
2011,08,24,13,28,20.00
2011,08,24,13,29,19.90
2011,08,24,13,30,19.90
2011,08,24,13,31,19.90
2011,08,24,13,32,20.00
2011,08,24,13,33,20.10
2011,08,24,13,34,20.20
2011,08,24,13,35,20.30
2011,08,24,13,36,20.30
2011,08,24,13,37,20.40
2011,08,24,13,38,20.40
2011,08,24,13,39,20.30
2011,08,24,13,40,20.40
2011,08,24,13,41,20.50
2011,08,24,13,42,20.50
2011,08,24,13,43,20.60
2011,08,24,13,44,20.70
2011,08,24,13,45,20.70
2011,08,24,13,46,20.70
2011,08,24,13,47,20.60
2011,08,24,13,48,20.60
2011,08,24,13,49,20.50
2011,08,24,13,50,20.50
2011,08,24,13,51,20.40
2011,08,24,13,52,20.30
2011,08,24,13,53,20.20
2011,08,24,13,54,20.20
2011,08,24,13,55,20.20
2011,08,24,13,56,20.20
2011,08,24,13,57,20.20
2011,08,24,13,58,20.20
2011,08,24,13,59,20.20
2011,08,24,14,00,20.20
2011,08,24,14,01,20.20
2011,08,24,14,02,20.30
2011,08,24,14,03,20.30
2011,08,24,14,04,20.30
2011,08,24,14,05,20.40
2011,08,24,14,06,20.40
2011,08,24,14,07,20.50
2011,08,24,14,08,20.50
2011,08,24,14,09,20.50
2011,08,24,14,10,20.50
2011,08,24,14,11,20.70
2011,08,24,14,12,20.70
2011,08,24,14,13,20.80
2011,08,24,14,14,20.80
2011,08,24,14,15,20.80
2011,08,24,14,16,20.70
2011,08,24,14,17,20.60
2011,08,24,14,18,20.70
2011,08,24,14,19,20.70
2011,08,24,14,20,20.70
2011,08,24,14,21,20.80
2011,08,24,14,22,20.90
2011,08,24,14,23,20.90
2011,08,24,14,24,20.90
2011,08,24,14,25,21.00
2011,08,24,14,26,21.00
2011,08,24,14,27,21.10
2011,08,24,14,28,21.00
2011,08,24,14,29,21.00
2011,08,24,14,30,20.90
2011,08,24,14,31,20.90
2011,08,24,14,32,20.90
2011,08,24,14,33,21.00
2011,08,24,14,34,21.10
2011,08,24,14,35,21.00
2011,08,24,14,36,21.00
2011,08,24,14,37,20.90
2011,08,24,14,38,20.80
2011,08,24,14,39,20.70
2011,08,24,14,40,20.60
2011,08,24,14,41,20.60
2011,08,24,14,42,20.70
2011,08,24,14,43,20.70
2011,08,24,14,44,20.70
2011,08,24,14,45,20.70
2011,08,24,14,46,20.70
2011,08,24,14,47,20.80
2011,08,24,14,48,20.80
2011,08,24,14,49,20.90
2011,08,24,14,50,21.10
2011,08,24,14,51,21.20
2011,08,24,14,52,21.40
2011,08,24,14,53,21.40
2011,08,24,14,54,21.60
2011,08,24,14,55,21.70
2011,08,24,14,56,21.70
2011,08,24,14,57,21.70
2011,08,24,14,58,21.60
2011,08,24,14,59,21.60
2011,08,24,15,00,21.50
2011,08,24,15,01,21.30
2011,08,24,15,02,21.30
2011,08,24,15,03,21.20
2011,08,24,15,04,21.10
2011,08,24,15,05,21.10
2011,08,24,15,06,21.00
2011,08,24,15,07,21.00
2011,08,24,15,08,21.10
2011,08,24,15,09,21.20
2011,08,24,15,10,21.30
2011,08,24,15,11,21.30
2011,08,24,15,12,21.40
2011,08,24,15,13,21.50
2011,08,24,15,14,21.60
2011,08,24,15,15,21.60
2011,08,24,15,16,21.60
2011,08,24,15,17,21.60
2011,08,24,15,18,21.60
2011,08,24,15,19,21.60
2011,08,24,15,20,21.70
2011,08,24,15,21,21.80
2011,08,24,15,22,21.90
2011,08,24,15,23,21.90
2011,08,24,15,24,21.90
2011,08,24,15,25,21.80
2011,08,24,15,26,21.70
2011,08,24,15,27,21.70
2011,08,24,15,28,21.70
2011,08,24,15,29,21.70
2011,08,24,15,30,21.70
2011,08,24,15,31,21.70
2011,08,24,15,32,21.60
2011,08,24,15,33,21.60
2011,08,24,15,34,21.70
2011,08,24,15,35,21.60
2011,08,24,15,36,21.60
2011,08,24,15,37,21.60
2011,08,24,15,38,21.70
2011,08,24,15,39,21.80
2011,08,24,15,40,21.80
2011,08,24,15,41,21.90
2011,08,24,15,42,22.00
2011,08,24,15,43,22.00
2011,08,24,15,44,22.00
2011,08,24,15,45,22.00
2011,08,24,15,46,22.00
2011,08,24,15,47,22.00
2011,08,24,15,48,22.00
2011,08,24,15,49,21.90
2011,08,24,15,50,21.90
2011,08,24,15,51,21.80
2011,08,24,15,52,21.80
2011,08,24,15,53,21.80
2011,08,24,15,54,21.70
2011,08,24,15,55,21.70
2011,08,24,15,56,21.80
2011,08,24,15,57,21.90
2011,08,24,15,58,21.90
2011,08,24,15,59,21.90
2011,08,24,16,00,21.90
2011,08,24,16,01,21.90
2011,08,24,16,02,21.90
2011,08,24,16,03,21.90
2011,08,24,16,04,21.90
2011,08,24,16,05,21.90
2011,08,24,16,06,21.90
2011,08,24,16,07,22.00
2011,08,24,16,08,22.00
2011,08,24,16,09,22.00
2011,08,24,16,10,22.00
2011,08,24,16,11,22.00
2011,08,24,16,12,22.00
2011,08,24,16,13,22.00
2011,08,24,16,14,22.10
2011,08,24,16,15,22.20
2011,08,24,16,16,22.30
2011,08,24,16,17,22.30
2011,08,24,16,18,22.40
2011,08,24,16,19,22.40
2011,08,24,16,20,22.40
2011,08,24,16,21,22.30
2011,08,24,16,22,22.30
2011,08,24,16,23,22.30
2011,08,24,16,24,22.30
2011,08,24,16,25,22.30
2011,08,24,16,26,22.20
2011,08,24,16,27,22.10
2011,08,24,16,28,22.00
2011,08,24,16,29,22.00
2011,08,24,16,30,22.00
2011,08,24,16,31,22.00
2011,08,24,16,32,22.00
2011,08,24,16,33,22.10
2011,08,24,16,34,22.10
2011,08,24,16,35,22.20
2011,08,24,16,36,22.20
2011,08,24,16,37,22.30
2011,08,24,16,38,22.30
2011,08,24,16,39,22.40
2011,08,24,16,40,22.40
2011,08,24,16,41,22.50
2011,08,24,16,42,22.60
2011,08,24,16,43,22.60
2011,08,24,16,44,22.70
2011,08,24,16,45,22.80
2011,08,24,16,46,22.90
2011,08,24,16,47,22.90
2011,08,24,16,48,22.90
2011,08,24,16,49,22.90
2011,08,24,16,50,22.90
2011,08,24,16,51,22.90
2011,08,24,16,52,22.90
2011,08,24,16,53,22.90
2011,08,24,16,54,22.90
2011,08,24,16,55,22.90
2011,08,24,16,56,23.00
2011,08,24,16,57,23.00
2011,08,24,16,58,23.10
2011,08,24,16,59,23.10
2011,08,24,17,00,23.20
2011,08,24,17,01,23.30
2011,08,24,17,02,23.30
2011,08,24,17,03,23.30
2011,08,24,17,04,23.40
2011,08,24,17,05,23.40
2011,08,24,17,06,23.40
2011,08,24,17,07,23.40
2011,08,24,17,08,23.50
2011,08,24,17,09,23.60
2011,08,24,17,10,23.70
2011,08,24,17,11,23.70
2011,08,24,17,12,23.70
2011,08,24,17,13,23.70
2011,08,24,17,14,23.70
2011,08,24,17,15,23.80
2011,08,24,17,16,23.80
2011,08,24,17,17,23.90
2011,08,24,17,18,23.90
2011,08,24,17,19,23.90